User: anonymous   Login
Location: Unspecified
(0.0000°N, 0.0000°E)
Time: 19:40:51
(UTC+00:00)
Language:

PACE - Orbit

View from above orbital plane
View from above orbital plane
View from above satellite
View from above satellite

Ground track
Ground track

The orbit data is extracted from the following two-line orbital elements,

1 40022U 14033N   18351.53571761  .00000177  00000-0  25025-4 0  9995
2 40022  97.9064 266.4291 0012352 309.2273  50.7846 14.88556997244039
Epoch (UTC): 17 December 2018 12:51:26
Eccentricity: 0.0012352
inclination: 97.9064°
perigee height: 594 km
apogee height: 611 km
right ascension of ascending node: 266.4291°
argument of perigee: 309.2273°
revolutions per day: 14.88556997
mean anomaly at epoch: 50.7846°
orbit number at epoch: 24403

The dashed part of the orbit path shows where the satellite is in the earth's shadow,  

DLR